This is the latest recevied weather packets stored in our database for station/object DB0TV-13. If no packets are shown the sender has not sent any weather packets the latest 10 day(s).
| Time | Temp. | Humidity | Pressure | Rain* | Wind** | Luminosity | Snow |
|---|---|---|---|---|---|---|---|
| 1777726820 | 23.89° C | 48% | 1017.8 hPa | 0 mm | - | 650 W/m² | - |
| 1777726220 | 23.89° C | 48% | 1018 hPa | 0 mm | - | 738 W/m² | - |
| 1777725620 | 23.89° C | 47% | 1018 hPa | 0 mm | - | 652 W/m² | - |
| 1777725020 | 23.89° C | 48% | 1018.3 hPa | 0 mm | - | 689 W/m² | - |
| 1777724420 | 23.89° C | 47% | 1018.4 hPa | 0 mm | - | 588 W/m² | - |
| 1777723820 | 23.89° C | 49% | 1018.6 hPa | 0 mm | - | 734 W/m² | - |
| 1777723219 | 23.33° C | 49% | 1018.7 hPa | 0 mm | - | 720 W/m² | - |
| 1777722620 | 23.33° C | 50% | 1018.8 hPa | 0 mm | - | 741 W/m² | - |
| 1777722020 | 23.33° C | 50% | 1018.9 hPa | 0 mm | - | 717 W/m² | - |
| 1777721420 | 22.78° C | 52% | 1018.9 hPa | 0 mm | - | 702 W/m² | - |
| 1777720819 | 22.78° C | 52% | 1019 hPa | 0 mm | - | 762 W/m² | - |
| 1777720220 | 22.22° C | 53% | 1019.1 hPa | 0 mm | - | 704 W/m² | - |
| 1777719620 | 22.78° C | 52% | 1019.1 hPa | 0 mm | - | 697 W/m² | - |
| 1777719019 | 22.78° C | 52% | 1019.2 hPa | 0 mm | - | 717 W/m² | - |
| 1777718419 | 22.78° C | 52% | 1019.3 hPa | 0 mm | - | 620 W/m² | - |
| 1777717820 | 22.22° C | 53% | 1019.3 hPa | 0 mm | - | 772 W/m² | - |
| 1777717220 | 22.22° C | 51% | 1019.6 hPa | 0 mm | - | 752 W/m² | - |
| 1777716619 | 21.67° C | 52% | 1019.6 hPa | 0 mm | - | 776 W/m² | - |
| 1777716020 | 21.67° C | 52% | 1019.7 hPa | 0 mm | - | 749 W/m² | - |
| 1777715419 | 21.11° C | 51% | 1019.6 hPa | 0 mm | - | 608 W/m² | - |
| 1777714819 | 21.11° C | 51% | 1019.7 hPa | 0 mm | - | 691 W/m² | - |
| 1777714219 | 20.56° C | 51% | 1019.8 hPa | 0 mm | - | 687 W/m² | - |
| 1777713620 | 20.56° C | 50% | 1019.7 hPa | 0 mm | - | 593 W/m² | - |
| 1777713019 | 20° C | 50% | 1019.6 hPa | 0 mm | - | 561 W/m² | - |
| 1777712419 | 20° C | 50% | 1019.7 hPa | 0 mm | - | 428 W/m² | - |
* Rain latest hour (hover to see other rain measurements)
** Current wind speed in m/s (hover to see current wind gust speed)